GW3643 Weather Reports


time (UTC)temp
F
wind
direction
speed
knots
gust
knots
rain 1hr
in
rain 24hr
in
rain mn
in
humidity
%
barometer
mb
20260510211046 54 204 1.7 6.1 0.00 0.14 0.14 72 1013.0
20260510210545 54 176 1.7 6.1 0.00 0.14 0.14 72 1012.8
20260510210048 54 215 0.9 6.1 0.00 0.14 0.14 72 1012.8
20260510205545 54 195 2.6 7.8 0.00 0.25 0.14 71 1012.7
20260510205045 54 185 2.6 7.8 0.00 0.25 0.14 71 1012.7
20260510204553 54 238 4.3 8.7 0.00 0.25 0.14 71 1012.7
20260510204045 54 213 4.3 8.7 0.00 0.25 0.14 71 1012.8
20260510203547 54 199 3.5 7.8 0.00 0.25 0.14 71 1012.6
20260510203048 54 177 1.7 7.0 0.00 0.25 0.14 72 1012.6
20260510202549 54 0 0.0 7.0 0.00 0.25 0.14 72 1012.5
20260510202045 54 187 2.6 12.2 0.00 0.25 0.14 72 1012.5
20260510201552 54 202 3.5 12.2 0.00 0.25 0.14 72 1012.4
20260510201045 55 200 4.3 12.2 0.00 0.25 0.14 72 1012.3
20260510200549 55 206 3.5 12.2 0.00 0.25 0.14 71 1012.3
20260510200104 55 188 3.5 11.3 0.00 0.25 0.14 71 1012.1
20260510195547 55 210 3.5 8.7 0.00 0.25 0.14 71 1012.1
20260510195042 55 213 3.5 8.7 0.00 0.25 0.14 71 1012.0
20260510194601 55 195 2.6 8.7 0.00 0.25 0.14 70 1012.0
20260510194045 55 203 4.3 8.7 0.00 0.25 0.14 70 1012.0
20260510193542 55 188 1.7 9.6 0.00 0.25 0.14 69 1012.0
20260510193058 55 180 1.7 9.6 0.00 0.25 0.14 69 1012.0
20260510192542 56 229 3.5 9.6 0.00 0.25 0.14 68 1012.0
20260510192042 56 170 5.2 9.6 0.00 0.25 0.14 68 1012.0
20260510191552 56 234 4.3 10.4 0.00 0.25 0.14 67 1011.8
20260510191044 56 211 3.5 10.4 0.00 0.25 0.14 67 1011.8
20260510190545 56 234 1.7 10.4 0.00 0.25 0.14 66 1011.9
20260510190054 56 199 2.6 10.4 0.00 0.25 0.14 66 1011.7
20260510185545 56 234 3.5 11.3 0.00 0.25 0.14 66 1011.6
20260510185045 56 178 2.6 11.3 0.00 0.25 0.14 66 1011.5
20260510184554 56 158 5.2 11.3 0.00 0.25 0.14 66 1011.5
20260510184045 57 189 3.5 9.6 0.00 0.25 0.14 65 1011.4
20260510183545 57 212 2.6 9.6 0.00 0.25 0.14 65 1011.4
20260510183051 57 222 4.3 9.6 0.00 0.25 0.14 65 1011.5
20260510182546 58 196 2.6 11.3 0.00 0.25 0.14 64 1011.5
20260510182046 58 199 5.2 11.3 0.00 0.25 0.14 63 1011.4
20260510181549 58 268 2.6 10.4 0.00 0.25 0.14 59 1011.5
20260510181045 58 175 4.3 10.4 0.00 0.25 0.14 59 1011.5
20260510180545 58 282 1.7 15.6 0.00 0.25 0.14 59 1011.5
20260510180050 58 187 5.2 15.6 0.00 0.25 0.14 58 1011.4
20260510175542 58 226 2.6 8.7 0.00 0.25 0.14 59 1011.4
20260510175042 58 337 2.6 14.8 0.00 0.25 0.14 59 1011.5
20260510174555 58 274 2.6 14.8 0.00 0.25 0.14 59 1011.5
20260510174049 58 221 3.5 13.0 0.00 0.25 0.14 58 1011.5
20260510173547 59 215 4.3 9.6 0.00 0.25 0.14 57 1011.4
20260510173053 59 298 1.7 13.9 0.00 0.25 0.14 57 1011.4
20260510172545 58 263 2.6 13.9 0.00 0.25 0.14 57 1011.5
20260510172042 58 236 4.3 13.9 0.00 0.25 0.14 56 1011.5
20260510171551 59 0 1.7 9.6 0.00 0.25 0.14 56 1011.4
20260510171048 59 230 4.3 11.3 0.00 0.25 0.14 55 1011.4
20260510170545 59 164 3.5 13.0 0.00 0.25 0.14 55 1011.5
20260510170048 59 173 3.5 13.0 0.00 0.25 0.14 55 1011.3
20260510165544 59 235 4.3 13.0 0.00 0.33 0.14 54 1011.5
20260510165045 59 53 3.5 12.2 0.00 0.33 0.14 54 1011.4
20260510164555 60 125 2.6 12.2 0.00 0.33 0.14 54 1011.4
20260510164045 60 290 1.7 8.7 0.00 0.33 0.14 54 1011.5
20260510163546 60 254 2.6 8.7 0.00 0.33 0.14 54 1011.4
20260510163052 60 174 1.7 12.2 0.00 0.33 0.14 54 1011.3
20260510162545 60 336 2.6 12.2 0.00 0.33 0.14 54 1011.3
20260510162043 60 355 2.6 11.3 0.00 0.33 0.14 53 1011.4
20260510161553 60 222 3.5 11.3 0.00 0.33 0.14 55 1011.5
20260510161046 59 205 3.5 11.3 0.00 0.33 0.14 55 1011.4
20260510160543 58 249 3.5 8.7 0.00 0.33 0.14 56 1011.6
20260510160055 58 201 2.6 9.6 0.00 0.33 0.14 56 1011.5
20260510155542 59 228 3.5 9.6 0.00 0.33 0.14 57 1011.5
20260510155045 59 273 3.5 13.0 0.00 0.33 0.14 58 1011.4
20260510154555 60 224 3.5 13.0 0.00 0.33 0.14 58 1011.5
20260510154046 59 202 3.5 10.4 0.00 0.33 0.14 59 1011.4
20260510153543 59 284 0.0 9.6 0.00 0.33 0.14 61 1011.4
20260510153054 58 241 3.5 13.0 0.00 0.33 0.14 63 1011.5
20260510152543 57 232 3.5 13.0 0.00 0.33 0.14 62 1011.4
20260510152045 57 233 6.1 13.0 0.00 0.33 0.14 61 1011.5
20260510151554 57 243 6.1 12.2 0.00 0.33 0.14 61 1011.7
20260510151045 58 233 3.5 13.0 0.00 0.33 0.14 61 1011.6
20260510150545 58 265 2.6 13.0 0.00 0.33 0.14 61 1011.7
20260510150121 57 224 3.5 12.2 0.00 0.33 0.14 60 1011.7
20260510145548 57 238 2.6 13.0 0.00 0.35 0.14 64 1011.9
20260510145043 56 236 3.5 13.0 0.00 0.35 0.14 67 1011.9
20260510144610 56 251 3.5 11.3 0.00 0.35 0.14 68 1012.0
20260510144044 56 223 1.7 11.3 0.00 0.35 0.14 69 1012.1
20260510143542 56 209 1.7 14.8 0.00 0.35 0.14 70 1012.1
20260510143053 55 279 2.6 14.8 0.00 0.35 0.14 71 1012.0
20260510142541 55 199 1.7 13.9 0.00 0.35 0.14 72 1012.2
20260510142046 55 309 2.6 13.9 0.00 0.35 0.14 71 1012.1
20260510141548 54 230 2.6 8.7 0.00 0.35 0.14 71 1012.1
20260510141046 55 270 2.6 9.6 0.00 0.35 0.14 70 1012.2
20260510140542 55 9 3.5 9.6 0.00 0.35 0.14 70 1012.2
20260510140053 55 24 2.6 13.9 0.00 0.35 0.14 71 1012.1
20260510135545 55 232 3.5 13.9 0.00 0.35 0.14 71 1012.0
20260510135046 55 305 1.7 10.4 0.00 0.35 0.14 73 1012.1
20260510134605 54 346 2.6 10.4 0.00 0.35 0.14 76 1012.2
20260510134042 54 239 2.6 12.2 0.00 0.35 0.14 75 1012.0
20260510133545 54 278 1.7 12.2 0.00 0.35 0.14 74 1012.1
20260510133054 55 288 0.9 10.4 0.00 0.35 0.14 74 1012.0
20260510132545 55 294 2.6 10.4 0.00 0.35 0.14 73 1012.0
20260510132047 55 284 1.7 8.7 0.00 0.35 0.14 72 1011.9
20260510131557 56 283 1.7 8.7 0.00 0.35 0.14 73 1011.8
20260510131045 56 226 3.5 8.7 0.00 0.35 0.14 72 1011.8
20260510130542 56 297 1.7 12.2 0.00 0.35 0.14 72 1011.6
20260510130053 56 239 4.3 12.2 0.00 0.35 0.14 72 1011.8
20260510125545 56 227 5.2 12.2 0.00 0.44 0.14 72 1011.8
20260510125045 56 183 3.5 10.4 0.00 0.44 0.14 73 1011.9
20260510124600 55 240 1.7 9.6 0.00 0.44 0.14 75 1011.8
20260510124045 55 284 0.9 9.6 0.00 0.44 0.14 76 1011.9
20260510123545 54 220 1.7 8.7 0.00 0.44 0.14 76 1012.0
20260510123052 54 203 2.6 11.3 0.00 0.44 0.14 76 1012.1
20260510122545 54 235 1.7 11.3 0.00 0.44 0.14 77 1012.2
20260510122045 54 192 5.2 11.3 0.01 0.44 0.14 77 1012.2
20260510121553 54 283 1.7 9.6 0.01 0.44 0.14 81 1012.1
20260510121045 54 329 1.7 7.8 0.01 0.44 0.14 83 1011.9
20260510120545 53 253 0.9 10.4 0.01 0.44 0.14 82 1011.9
20260510120051 52 240 6.1 10.4 0.01 0.44 0.14 80 1012.1
20260510115545 52 224 2.6 7.8 0.01 0.44 0.14 81 1012.1
20260510115045 52 243 1.7 11.3 0.01 0.44 0.14 82 1012.1
20260510114612 52 198 1.7 11.3 0.01 0.44 0.14 84 1012.2
20260510114041 52 243 2.6 8.7 0.02 0.44 0.14 85 1012.3
20260510113544 52 241 0.0 8.7 0.02 0.44 0.14 86 1012.4
20260510113056 51 285 0.9 8.7 0.02 0.44 0.14 85 1012.4
20260510112543 51 249 1.7 13.0 0.01 0.44 0.13 85 1012.6
20260510112043 51 289 2.6 13.0 0.03 0.43 0.12 84 1012.7
20260510111553 52 213 1.7 11.3 0.09 0.43 0.12 85 1012.5
20260510111045 52 301 3.5 11.3 0.09 0.43 0.12 85 1012.4
20260510110545 52 220 0.9 9.6 0.09 0.43 0.12 85 1012.3
20260510110056 52 285 1.7 7.0 0.09 0.43 0.12 85 1012.2
20260510105548 51 244 1.7 7.0 0.09 0.52 0.12 85 1012.0
20260510105045 51 262 1.7 11.3 0.09 0.52 0.12 86 1012.0
20260510104600 51 241 1.7 11.3 0.09 0.52 0.12 85 1012.2
20260510104045 52 184 1.7 10.4 0.08 0.51 0.11 85 1012.2
20260510103545 52 199 2.6 13.0 0.08 0.51 0.11 84 1012.3
20260510103052 52 145 5.2 13.0 0.08 0.51 0.11 83 1012.1
20260510102547 54 236 5.2 10.4 0.08 0.51 0.11 80 1012.0
20260510102045 56 209 3.5 7.8 0.04 0.48 0.07 77 1011.7
20260510101559 56 236 2.6 12.2 0.00 0.43 0.03 78 1011.3
20260510101042 56 201 3.5 13.0 0.00 0.43 0.03 77 1011.3
20260510100543 56 186 6.1 13.9 0.00 0.43 0.03 77 1011.3
20260510095543 55 222 7.0 13.0 0.00 0.43 0.03 75 1011.4
20260510095045 56 166 6.1 14.8 0.00 0.43 0.03 77 1011.4
20260510094603 55 170 7.0 14.8 0.00 0.43 0.03 78 1011.4
20260510094042 55 191 5.2 14.8 0.00 0.43 0.03 77 1011.3
20260510093545 55 160 5.2 15.6 0.00 0.43 0.03 77 1011.5
20260510093100 55 147 7.0 15.6 0.00 0.43 0.03 77 1011.6
20260510092541 55 186 6.1 13.9 0.00 0.43 0.03 77 1011.6
20260510092045 55 181 5.2 16.5 0.00 0.43 0.03 80 1011.6
20260510091554 54 170 6.1 16.5 0.00 0.43 0.03 81 1011.6
20260510091045 54 180 6.1 13.0 0.00 0.43 0.03 81 1011.6
20260510090545 55 184 6.1 13.0 0.00 0.43 0.03 80 1011.6
20260510090052 54 126 5.2 12.2 0.00 0.43 0.03 83 1011.6
20260510085544 54 165 5.2 12.2 0.00 0.43 0.03 84 1011.6
20260510085045 53 222 4.3 11.3 0.00 0.43 0.03 85 1011.7
20260510084548 53 159 5.2 11.3 0.00 0.43 0.03 86 1011.6
20260510084046 53 180 4.3 11.3 0.00 0.43 0.03 86 1011.7
20260510083545 52 135 6.1 11.3 0.00 0.43 0.03 86 1011.6
20260510083051 52 145 4.3 13.0 0.00 0.43 0.03 86 1011.6
20260510082544 52 170 5.2 13.0 0.00 0.43 0.03 86 1011.7
20260510082042 52 147 7.0 13.0 0.00 0.43 0.03 85 1011.8
20260510081549 52 182 5.2 13.0 0.00 0.43 0.03 85 1011.9
20260510081046 52 200 3.5 10.4 0.00 0.43 0.03 86 1011.8
20260510080543 52 188 6.1 10.4 0.00 0.43 0.03 86 1011.8
20260510080054 52 199 4.3 13.9 0.00 0.43 0.03 86 1011.6
20260510075545 52 173 5.2 13.9 0.00 0.43 0.03 86 1011.7
20260510075045 51 221 5.2 9.6 0.00 0.43 0.03 86 1012.0
20260510074552 52 178 6.1 13.0 0.00 0.43 0.03 86 1012.1
20260510074045 51 180 4.3 13.0 0.00 0.43 0.03 86 1012.0
20260510073548 51 166 4.3 8.7 0.00 0.43 0.03 86 1012.1
20260510073056 51 146 3.5 8.7 0.00 0.43 0.03 86 1011.9
20260510072548 51 183 4.3 8.7 0.00 0.43 0.03 86 1011.9
20260510072045 51 179 4.3 8.7 0.00 0.43 0.03 85 1012.0
20260510071551 51 191 3.5 8.7 0.00 0.43 0.03 85 1011.9
20260510071045 51 193 4.3 8.7 0.00 0.43 0.03 84 1011.9
20260510070545 51 222 4.3 8.7 0.00 0.42 0.02 84 1011.8
20260510070105 51 168 4.3 8.7 0.00 0.42 0.02 84 1011.8
20260510065547 51 178 3.5 9.6 0.00 0.42 0.02 84 1011.9
20260510065047 51 179 5.2 9.6 0.00 0.42 0.02 84 1011.8
20260510064600 51 150 4.3 8.7 0.00 0.42 0.02 84 1011.8
20260510064048 51 166 3.5 8.7 0.00 0.42 0.02 84 1011.9
20260510063545 51 186 2.6 7.8 0.00 0.42 0.02 85 1011.8
20260510063059 51 188 2.6 7.8 0.00 0.42 0.02 85 1011.7
20260510062547 51 171 4.3 7.8 0.00 0.42 0.02 85 1011.6
20260510062042 51 178 3.5 7.8 0.00 0.42 0.02 86 1011.6
20260510061551 50 183 2.6 9.6 0.00 0.42 0.02 86 1011.5
20260510061042 50 168 4.3 9.6 0.00 0.42 0.02 86 1011.6
20260510060545 50 189 4.3 7.8 0.00 0.42 0.02 86 1011.6
20260510060059 50 155 2.6 7.0 0.00 0.42 0.02 86 1011.6
20260510055545 50 172 3.5 8.7 0.00 0.42 0.02 86 1011.5
20260510055046 50 187 3.5 9.6 0.00 0.42 0.02 86 1011.5
20260510054600 50 184 5.2 9.6 0.00 0.42 0.02 86 1011.5
20260510054044 50 187 2.6 7.0 0.00 0.42 0.02 86 1011.6
20260510053542 50 146 3.5 7.0 0.00 0.42 0.02 86 1011.4
20260510053054 50 149 2.6 7.8 0.00 0.42 0.02 86 1011.5
20260510052545 50 187 4.3 8.7 0.00 0.42 0.02 86 1011.5
20260510052042 50 168 3.5 8.7 0.00 0.42 0.02 86 1011.5
20260510051555 50 176 4.3 7.8 0.00 0.42 0.02 87 1011.5
20260510051045 50 179 2.6 7.8 0.00 0.42 0.02 87 1011.4
20260510050542 50 199 3.5 7.8 0.00 0.42 0.02 87 1011.3
20260510050053 50 166 2.6 5.2 0.00 0.42 0.02 87 1011.3
20260510045542 50 137 1.7 5.2 0.00 0.42 0.02 87 1011.4
20260510045045 50 124 2.6 6.1 0.00 0.42 0.02 87 1011.3
20260510044611 50 184 3.5 6.1 0.00 0.42 0.02 87 1011.4
20260510044047 50 210 3.5 6.1 0.00 0.42 0.02 87 1011.3
20260510043545 50 179 2.6 7.0 0.00 0.42 0.02 87 1011.4
20260510043054 50 168 2.6 7.0 0.00 0.42 0.02 87 1011.3
20260510042544 50 201 3.5 7.0 0.00 0.42 0.02 87 1011.4
20260510042044 50 194 2.6 7.0 0.00 0.42 0.02 87 1011.4
20260510041557 50 178 3.5 7.8 0.00 0.42 0.02 86 1011.4
20260510041047 50 173 4.3 7.8 0.00 0.42 0.02 86 1011.5
20260510040549 50 159 2.6 7.8 0.00 0.42 0.02 86 1011.5
20260510040049 50 186 2.6 7.8 0.00 0.42 0.02 86 1011.3
20260510035544 50 178 2.6 6.1 0.00 0.42 0.02 86 1011.3
20260510035047 50 184 2.6 6.1 0.00 0.42 0.02 86 1011.3
20260510034550 50 151 2.6 6.1 0.00 0.42 0.02 86 1011.4
20260510034043 50 166 2.6 7.0 0.00 0.42 0.02 86 1011.4
20260510033545 50 131 2.6 7.0 0.00 0.42 0.02 86 1011.4
20260510033115 50 165 1.7 6.1 0.00 0.42 0.02 86 1011.4
20260510032546 50 160 2.6 6.1 0.00 0.42 0.02 86 1011.5
20260510032042 50 165 1.7 6.1 0.00 0.42 0.02 86 1011.6
20260510031605 50 180 2.6 7.8 0.00 0.42 0.02 86 1011.7
20260510031043 50 182 3.5 7.8 0.00 0.42 0.02 86 1011.7
20260510030545 50 184 1.7 7.8 0.00 0.42 0.02 87 1011.8
20260510030054 50 190 3.5 7.8 0.00 0.42 0.02 87 1011.8
20260510025543 50 180 2.6 5.2 0.00 0.42 0.02 87 1011.8
20260510025042 50 165 2.6 5.2 0.00 0.42 0.02 87 1012.0
20260510024552 50 196 0.9 3.5 0.00 0.42 0.02 87 1012.1
20260510024044 50 0 0.9 2.6 0.00 0.42 0.02 87 1012.0
20260510023544 50 0 0.0 3.5 0.00 0.42 0.02 87 1012.1
20260510023051 50 218 0.9 3.5 0.00 0.42 0.02 87 1012.1
20260510022547 50 208 1.7 3.5 0.00 0.42 0.02 87 1012.1
20260510022043 50 218 0.9 3.5 0.00 0.42 0.02 87 1012.0
20260510021551 50 203 1.7 4.3 0.00 0.42 0.02 87 1012.0
20260510021043 50 0 0.0 4.3 0.00 0.42 0.02 87 1011.9
20260510020548 50 186 0.9 3.5 0.00 0.42 0.02 87 1012.0
20260510020052 50 0 0.9 3.5 0.00 0.42 0.02 87 1012.1
20260510015542 50 0 0.0 6.1 0.00 0.42 0.02 87 1012.0
20260510015048 50 248 0.9 6.1 0.00 0.42 0.02 87 1012.1
20260510014606 50 276 0.0 5.2 0.00 0.42 0.02 87 1012.0
20260510014045 50 284 0.9 5.2 0.00 0.42 0.02 87 1012.0
20260510013542 50 228 0.0 4.3 0.00 0.42 0.02 87 1012.0
20260510013049 50 211 0.9 4.3 0.00 0.42 0.02 87 1012.0
20260510012545 50 0 1.7 4.3 0.00 0.42 0.02 87 1012.0
20260510012045 50 0 0.0 6.1 0.00 0.42 0.02 87 1012.1
20260510011559 50 251 0.9 6.1 0.00 0.42 0.02 87 1012.1
20260510011044 50 213 2.6 7.0 0.00 0.42 0.02 87 1012.2
20260510010544 50 221 2.6 7.8 0.00 0.42 0.02 87 1012.2
20260510010100 50 191 2.6 7.8 0.00 0.42 0.02 87 1012.1
20260510005544 50 250 2.6 7.0 0.00 0.42 0.02 87 1012.2
20260510005046 51 207 0.9 7.0 0.00 0.42 0.02 87 1012.1
20260510004556 50 163 2.6 7.0 0.00 0.42 0.02 87 1012.1
20260510004045 50 226 2.6 7.0 0.00 0.42 0.02 87 1012.3
20260510003542 50 203 1.7 7.0 0.00 0.42 0.02 87 1012.3
20260510003100 50 222 2.6 6.1 0.00 0.42 0.02 87 1012.3
20260510002545 50 222 2.6 6.1 0.00 0.42 0.02 87 1012.4
20260510002042 50 209 0.9 6.1 0.00 0.42 0.02 87 1012.4
20260510001554 50 239 0.9 4.3 0.00 0.42 0.02 87 1012.3
20260510001043 50 253 0.9 4.3 0.00 0.42 0.02 87 1012.4
20260510000544 50 0 0.0 6.1 0.00 0.42 0.02 87 1012.4
20260510000057 50 0 1.7 6.1 0.00 0.42 0.02 87 1012.4
20260509235547 50 244 0.0 4.3 0.00 0.42 0.02 88 1012.5
20260509235042 50 188 1.7 4.3 0.01 0.42 0.02 87 1012.4
20260509234605 50 191 0.0 3.5 0.02 0.42 0.02 87 1012.5
20260509234042 50 0 0.0 7.8 0.02 0.42 0.02 87 1012.5
20260509233547 50 0 1.7 8.7 0.02 0.42 0.02 87 1012.5
20260509233050 50 220 3.5 8.7 0.02 0.42 0.02 87 1012.6
20260509232545 50 0 0.0 3.5 0.02 0.42 0.02 87 1012.5
20260509232043 50 191 0.9 5.2 0.02 0.42 0.02 87 1012.6
20260509231552 50 0 0.9 7.8 0.02 0.42 0.02 87 1012.6
20260509231042 50 215 2.6 7.8 0.02 0.42 0.02 87 1012.6
20260509230545 50 205 3.5 7.0 0.02 0.42 0.02 86 1012.7
20260509230056 50 211 1.7 12.2 0.01 0.41 0.01 86 1012.7
20260509225548 51 0 2.6 12.2 0.01 0.41 0.01 86 1012.7
20260509225047 51 71 1.7 6.1 0.00 0.40 0.00 86 1012.6
20260509224547 51 276 0.9 9.6 0.00 0.40 0.00 86 1012.5
20260509224045 51 0 0.9 9.6 0.00 0.40 0.00 85 1012.4
20260509223544 51 16 0.0 7.8 0.00 0.40 0.00 86 1012.4
20260509223101 51 0 0.9 7.8 0.00 0.40 0.00 85 1012.4
20260509222542 51 0 0.0 2.6 0.00 0.40 0.00 86 1012.3
20260509222042 51 229 0.0 3.5 0.00 0.40 0.00 86 1012.3
20260509221551 51 0 0.9 3.5 0.00 0.40 0.00 86 1012.3
20260509221045 51 0 0.9 3.5 0.00 0.40 0.00 86 1012.3
20260509220543 51 0 1.7 3.5 0.00 0.40 0.00 86 1012.1
20260509215544 51 249 0.0 2.6 0.01 0.40 0.40 87 1011.9
20260509215044 51 0 0.0 2.6 0.02 0.40 0.40 87 1011.9
20260509214547 50 270 0.0 2.6 0.03 0.40 0.40 87 1011.9
20260509214043 50 0 0.0 2.6 0.04 0.40 0.40 87 1012.0
20260509213542 50 303 0.0 2.6 0.05 0.40 0.40 88 1012.0
20260509213052 50 0 0.0 2.6 0.07 0.40 0.40 87 1011.9
20260509212544 50 0 0.0 2.6 0.11 0.40 0.40 87 1011.8
20260509212045 50 297 0.0 2.6 0.11 0.40 0.40 87 1011.9
20260509211553 50 0 0.0 7.0 0.11 0.40 0.40 87 1011.9